Location: Drocourt
(49.0571°N, 1.7669°E)
Time: 00:13:58
(UTC+00:00)

Cosmos 1892 - Pass Details

Date: 09 February 2023
Orbit: 485 x 506 km, 82.5° (Epoch: 01 April)

Event Time Altitude Azimuth Distance (km) Brightness Sun altitude
Rises 17:39:42 0° 199° (SSW) 2,583 6.8 -6.6°
Reaches altitude 10° 17:41:50 10° 204° (SSW) 1,709 5.9 -6.9°
Maximum altitude 17:45:30 54° 283° (WNW) 624 3.5 -7.5°
Drops below altitude 10° 17:49:15 10° 1° (N) 1,739 5.2 -8.1°
Sets 17:51:26 0° 6° (N) 2,634 6.1 -8.4°
